Regional Weather Roundup
Issued by NWS Sterling, VA

Home | Current Version | Previous Version | Graphics & Text | Print | Product List | Glossary On
Versions: 1 2 3 4 5 6 7 8 9 10 11 12 13 14 15 16 17 18 19 20 21 22 23 24 25 26 27 28 29 30 31 32 33 34 35 36 37 38 39 40 41 42 43 44 45 46 47 48 49 50
000
ASUS41 KLWX 062310
RWRLWX

REGIONAL WEATHER ROUNDUP
NATIONAL WEATHER SERVICE BALTIMORE MD/WASHINGTON DC
700 PM EDT WED MAY 06 2015

Note: "FAIR" indicates few or no clouds below 12,000 feet
with no significant weather and/or obstructions to visibility.
 TC=TEMPERATURE CELSIUS

 * =Non NWS site. Station does not report precipitation (e.g. rain,
    snow, etc.), thunder, or fog.

DCZ001-MDZ009-015-VAZ040>042-051-053>054-070000-
WASHINGTON METRO

CITY           SKY/WX    TMP DP  RH WIND       PRES   REMARKS
WASHINGTON NAT CLOUDY    78  61  55 E5        30.16R
DULLES         LGT RAIN  67  62  84 SE6       30.14F
ANDREWS AFB    PTSUNNY   74  61  63 E8        30.16R
FT BELVOIR     CLOUDY    73  68  85 VRB1      30.15R
QUANTICO       CLOUDY    72  67  84 N6        30.15R
COLLEGE PARK*  CLOUDY    75  61  60 SE3       30.16S
LEESBURG*      CLOUDY    70  66  88 N3        30.16S
MANASSAS*      PTSUNNY   66  66 100 N6        30.17R
GAITHERSBURG*  CLOUDY    72  64  78 SE7       30.19F

$$

MDZ006>007-011-014-070000-
BALTIMORE METRO

CITY           SKY/WX    TMP DP  RH WIND       PRES   REMARKS
BWI AIRPORT    CLOUDY    73  58  59 E10       30.16R
MD SCIENCE CTR   N/A     75  56  51 MISG      30.17R
MARTIN STATE   PTSUNNY   75  59  57 E6        30.18S
ANNAPOLIS      MOSUNNY   72  57  59 E8        30.17R
FORT MEADE*    MOSUNNY   72  61  68 SE6       30.19R

$$

MDZ012-015-019>023-070000-
MARYLAND EASTERN SHORE

CITY           SKY/WX    TMP DP  RH WIND       PRES   REMARKS
OCEAN CITY     PTCLDY    57  51  80 NE8       30.21S
SALISBURY      PTCLDY    66  55  67 E9        30.18S
BAY BRIDGE AP*   N/A    N/A N/A N/A E8        30.18R
CAMBRIDGE*     MOSUNNY   73  55  53 E8        30.16S
EASTON*        SUNNY     77  57  50 E10       30.21S

$$

MDZ017>025-070000-
SOUTHERN MARYLAND

CITY           SKY/WX    TMP DP  RH WIND       PRES   REMARKS
PATUXENT RIVER PTSUNNY   69  55  60 SE9       30.15F
ST INIGOES     MOSUNNY   73  54  51 E5        30.14F
LEONARDTOWN*   MOSUNNY   72  55  56 E3        30.16F

$$

MDZ003>005-070000-
NORTH CENTRAL MARYLAND

CITY           SKY/WX    TMP DP  RH WIND       PRES   REMARKS
FREDERICK*     PTSUNNY   75  61  60 S6        30.18S
HAGERSTOWN APT PTSUNNY   76  56  49 E10       30.16R
WESTMINSTER*   CLOUDY    77  57  50 SE3       30.17S

$$

MDZ501>502-070000-
WESTERN MARYLAND

CITY           SKY/WX    TMP DP  RH WIND       PRES   REMARKS
OAKLAND*       MOSUNNY   73  48  40 NW5       30.20F
CUMBERLAND*    MOSUNNY   79  55  44 CALM      30.16S

$$

VAZ025>031-070000-
SHENANDOAH VALLEY

CITY           SKY/WX    TMP DP  RH WIND       PRES   REMARKS
WINCHESTER*    MOSUNNY   72  55  56 SW3       30.14F
FRONT ROYAL*   FAIR      68  64  88 CALM      30.13F
LURAY*         TSTM      64  61  88 SE8G26    30.16S
NEW MARKET*    CLOUDY    73  62  68 E3        30.12S
STAUNTON*      RAIN      73  61  66 W6        30.15F
WAYNESBORO*    FAIR      74  58  58 W6        30.16S

$$

WVZ021-048>050-054>055-070000-
EASTERN WEST VIRGINIA PANHANDLE

CITY           SKY/WX    TMP DP  RH WIND       PRES   REMARKS
MARTINSBURG    MOSUNNY   73  62  68 E8        30.15R
PETERSBURG*    LGT RAIN  77  55  45 SE6       30.13S

$$

VAZ036>039-050-070000-
CENTRAL FOOTHILLS

CITY           SKY/WX    TMP DP  RH WIND       PRES   REMARKS
CHARLOTTESVILL PTSUNNY   78  62  57 NE6       30.12S
CULPEPER*      PTSUNNY   71  61  69 NE7G17    30.16R
ORANGE*        MOSUNNY   81  63  54 CALM      30.14S
GORDONSVILLE*  CLOUDY    80  62  55 S3        30.12S
WARRENTON*     LGT RAIN  71  65  81 NE5       30.16R

$$

VAZ055>057-070000-
NORTH AND CENTRAL PIEDMONT

CITY           SKY/WX    TMP DP  RH WIND       PRES   REMARKS
FREDERICKSBRG* MOSUNNY   81  66  60 NE10      30.12S
STAFFORD*      PTSUNNY   75  62  62 N7        30.18R

$$

NCZ024-NYZ072-PAZ021-071-VAZ022-071-070000-
OTHER REGIONAL OBSERVATIONS

CITY           SKY/WX    TMP DP  RH WIND       PRES   REMARKS
NEW YORK CITY  CLEAR     67  43  41 VRB5      30.25F
PHILADELPHIA   PTSUNNY   68  48  48 E10       30.20F
PITTSBURGH     PTSUNNY   79  56  45 N12       30.13S
ROANOKE        TSTM      66  63  90 N16G36    30.21R FOG
RICHMOND       CLOUDY    80  59  48 SE9       30.12S
RALEIGH        CLOUDY    77  56  48 SE7       30.13F

$$

ANZ530>537-070000-
MARINE OBSERVATIONS

STATION/POSITION TIME  TEMP    WIND        PRES
                       AIR SEA DIR/SP/G
                 (UTC) (F)     (DEG/KT/KT) (MB)
THOMAS PT LIGHT  2300   71 60   90/ 13/ 14 1022.1R
BALT KEY BRIDGE  2200   74      90/ 13/ 14 1021.1R
COVE POINT       2200   68     190/  9/  9 1022.0R
LEWISETTA        2200   69 70              1020.6S
SOLOMONS ISLAND  2200      64                N/A
PINEY POINT      2200          130/ 10/ 10   N/A

$$




USA.gov is the U.S. government's official web portal to all federal, state and local government web resources and services.